Время (UTC), дата Ветер
(°,м/с) 
Видим.   Явления Облачность Т
(°С)
Тd
(°С)
f(%) Тe
(°С)
Pmin
(гПа)
dP
(гПа)
Po
(мм)
O2
(г/м3)
Тmin Tmax R s Состояние
почвы
00 01.09.14 310 (СЗ) 10 км    ясно 
+11.3 +9.7 90 +13  1020.1  1.5  754  290           
03 01.09.14 350 (С) 20000 м    ясно 
+10.4 +9.1 92 +12  1022.1  1.9  756  292  +10.2        влажная 
06 01.09.14 360 (С) 20000 м    8/0 средняя 
[Ac lent]
+14.7 +10 73 +17  1023.5  1.6  757  288           
09 01.09.14 310 (СЗ) 20000 м    8/8 600 м 
[Cu med, cong]
+17.2 +7.9 54 +19  1024  0.6  757  286           
12 01.09.14 320 (СЗ) 20000 м    6/6 1000 м 
[Cu med, cong]
+17.7 +5 43 +19  1024.2  0.3  758  286           
15 01.09.14 060 (СВ) 20000 м    ясно 
+16.1 +5.1 48 +17  1024.1  -0.2  757  287    +18.2       
18 01.09.14 090 (В) 10 км    ясно 
+12.9 +5.1 59 +13  1025.1  0.8  758  291           
21 01.09.14 100 (В) 10 км    ясно 
+10.2 +4.7 69 +11  1025.8  0.5  758  294           
00 02.09.14 100 (В) н/о    н/о 
+9.6 +5.4 75 +11  1026.5  0.7  759  295           
03 02.09.14 110 (В) 20000 м    3/0 верхняя 
[Ci fib]
+10.2 +5.9 75 +11  1026.8  0.3  759  294  +8.7        влажная 
06 02.09.14 180 (Ю) 20000 м    4/0 средняя, верхняя 
[Ac lent|Ci fib]
+15.2 +7.3 59 +16  1026.9  0.4  759  289           
09 02.09.14 110 (В) 20000 м    3/0 верхняя 
[Ci fib]
+10.2 +5.9 75 +11  1026.8  0.3  759  294  +8.7        влажная 
12 02.09.14 170 (Ю) 20000 м    10/0 средняя 
[As op]
+16.3 +7.6 56 +18  1025.9  -0.4  759  287           
15 02.09.14 120 (ЮВ) 10 км    10/4 1000 м средняя 
[Sc|Ac As]
+15.3 +8.6 64 +17  1025.1  -0.8  758  288    +18.6       
18 02.09.14 120 (ЮВ) 10 км    10/3 1000 м средняя 
[Sc|Ac As]
+14.3 +8.8 69 +16  1024.9  -0.2  758  289           
21 02.09.14 130 (ЮВ) 10 км  {ливн. осадки}  6/3 1000 м средняя 
[Cu med, cong|Ac cuf]
+14.1 +9.8 75 +16  1024.6  -0.3  758  289           
00 03.09.14 120 (ЮВ) 10 км  слаб. ливневой дождь  9/6 600 м кучево-дожд., средняя, верхняя 
[Cb calv|Ac cuf|Ci fib]
+13.6 +10.1 79 +16  1024.4  -0.3  758  289           
03 03.09.14 120 (ЮВ) 10 км  слаб. дождь{ливн. осадки}  10/10 <0100 м 
[Ns]
+12.8 +10.6 86 +16  1024.4  758  290  +12.8        влажная 
06 03.09.14 130 (ЮВ) 4000 м  дождь  10/10 300 м 
[Frnb|Ns]
+14.1 +12 87 +19  1023.6  -0.7  757  288  +12.7         
09 03.09.14 140 (ЮВ) 10 км  слаб. дождь  10/6 600 м средняя 
[Sc|Ac As]
+15.3 +11.9 80 +20  1021.8  -1.7  756  286           
12 03.09.14 160 (Ю) 10 км  {дождь}  10/0 средняя 
[Ac As]
+17.6 +12 70 +23  1020.6  -1  755  283           
15 03.09.14 110 (В) 10 км  в посл. час дождь  10/6 600 м средняя 
[Sc|Ac As]
+16.4 +13.1 81 +23  1019  -1.6  754  284    +17.7     
18 03.09.14 140 (ЮВ) 10 км  слаб. дождь  10/10 180 м 
[Frnb|Ns]
+14.3 +12.4 88 +20  1018.7  -0.4  753  286           
21 03.09.14 130 (ЮВ) 10 км  {дождь}  6/0 средняя 
[Ac As]
+12.9 +11.4 91 +17  1017.8  -0.9  753  287           
00 04.09.14 тихо ()   0050 м    10/0 
[St]
+12.5 +11.2 92 +15  1017.2  -0.6  752  288           
03 04.09.14 230 (ЮЗ) 4000 м  дымка  10/10 420 м 
[St]
+12.8 +11.8 94 +18  1017.1  -0.1  752  287  +12.4      влажная 
06 04.09.14 300 (СЗ) 4000 м  слаб. морось  10/10 300 м 
[St]
+13.3 +11.9 91 +18  1017.4  0.3  752  287           
09 04.09.14 290 (З) 20000 м  {морось}  10/9 870 м верхняя 
[Cu med, cong|Ci fib]
+16.1 +12.8 81 +22  1017.3  0.1  752  284           
12 04.09.14 310 (СЗ) 10 км  в посл. час ливневой дождь{морось}  9/8 600 м кучево-дожд., средняя 
[Cb cap|Ac lent]
+16 +12.3 79 +21  1017.3  752  284           
15 04.09.14 330 (СЗ) 10 км    10/10 600 м кучево-дожд. 
[Cb cap]
+15 +12.6 86 +21  1018.4  753  285    +17.8  0.3     
18 04.09.14 330 (СЗ) 10 км  {ливн. осадки}  10/10 570 м 
[Sc]
+13.9 +11.5 85 +17  1018.7  0.3  753  287           
21 04.09.14 310 (СЗ) н/о    н/о 
+12.3 +10.1 86 +15  1018.9  0.1  753  289           
00 05.09.14 тихо ()   н/о    н/о 
+11.1 +9.1 88 +11  1018.9  0.1  753  290           
03 05.09.14 280 (З) 20000 м    1/0 верхняя 
[Ci fib]
+10.3 +8.6 89 +11  1019.2  0.2  754  291  +9.4        влажная 
06 05.09.14 290 (З) 20000 м    4/0 верхняя 
[Ci fib]
+14.8 +9.1 69 +15  1019.1  0.1  754  286           
09 05.09.14 270 (З) 20000 м    8/0 
[Cu med, cong]
+17.9 +10.6 62 +21  1018  -0.9  753  283           
12 05.09.14 280 (З) 20000 м    9/6 600 м средняя, верхняя 
[Sc diur, vesp|Ac cuf|Ci fib]
+19 +10.1 56 +21  1017  -1  752  282           
15 05.09.14 270 (З) 20000 м    9/3 1000 м средняя, верхняя 
[Sc diur, vesp|Ac cuf|Ci fib]
+17.9 +10.1 60 +20  1016.2  -0.8  752  282    +19.7       
18 05.09.14 250 (З) 10 км    3/0 верхняя 
[Ci fib]
+15.5 +10.8 74 +19  1016  -0.4  751  285           
21 05.09.14 230 (ЮЗ) 10 км    8/0 верхняя 
[Cc]
+14.2 +11 81 +17  1015  -1  751  285           
00 06.09.14 260 (З) 10 км    ясно 
+14.6 +11.3 81 +19  1014.2  -0.8  750  285           
03 06.09.14 300 (СЗ) 20000 м    3/0 средняя 
[Ac lent]
+13.4 +10.9 85 +15  1014.6  0.4  750  286  +13.4        влажная 
06 06.09.14 270 (З) 20000 м    9/8 600 м средняя 
[Sc|Ac lent]
+14.9 +11.3 79 +18  1014.6  0.1  750  285  +13.1         
09 06.09.14 280 (З) 20000 м    8/6 600 м средняя, верхняя 
[Cu med, cong|Ac cuf|Ci fib]
+18.9 +11.3 61 +22  1013.8  -0.6  750  281           
12 06.09.14 300 (СЗ) 20000 м    9/8 600 м кучево-дожд., средняя, верхняя 
[Cb calv|Ac cuf|Ci fib]
+18.6 +11.6 64 +23  1013.8  -0.1  750  281           
15 06.09.14 290 (З) 20000 м  в посл. час ливневой дождь  8/6 600 м кучево-дожд., средняя, верхняя 
[Cb calv|Ac cuf|Ci fib]
+15 +12.7 86 +21  1014.1  0.2  750  284    +19.2     
18 06.09.14 310 (СЗ) 10 км  {ливн. осадки}  10/0 средняя 
[Ac und]
+14.6 +10.9 78 +18  1015  0.8  751  285           
21 06.09.14 320 (СЗ) 10 км    1/0 средняя 
[Ac lent]
+12.8 +10.1 84 +15  1015.8  0.7  751  287           
00 07.09.14 290 (З) 10 км    ясно 
+11 +9.5 90 +12  1016.9  752  290           
03 07.09.14 330 (СЗ) 10 км    9/0 средняя 
[Ac trans]
+10.7 +9.7 94 +13  1017.6  0.6  752  290  +10.3        влажная 
06 07.09.14 280 (З) 20000 м    9/0 средняя 
[Ac As]
+13.3 +10.2 81 +16  1018  0.5  753  287           
09 07.09.14 300 (СЗ) 10 км    10/0 средняя 
[Ac As]
+15.1 +10.1 72 +17  1018.2  0.3  753  286           
12 07.09.14 240 (ЮЗ) 10 км    8/0 средняя 
[Ac As]
+15.1 +8.9 66 +16  1017.7  -0.5  753  286           
15 07.09.14 140 (ЮВ) 10 км  слаб. дождь  10/0 средняя 
[Ac As]
+14.1 +10.1 77 +16  1017  -0.7  752  286    +16.3       
18 07.09.14 060 (СВ) 10 км  слаб. дождь  10/10 450 м 
[Ns]
+12.7 +10.8 88 +15  1018.1  753  288           
21 07.09.14 050 (СВ) н/о    н/о 
+11.6 +9.1 85 +13  1019.1  0.9  754  290           
00 08.09.14 040 (СВ) 10 км  {дождь}  3/0 верхняя 
[Ci fib]
+9.6 +7.1 84 +11  1020.4  1.2  754  292           
03 08.09.14 060 (СВ) 20000 м    ясно 
+8.5 +5.9 84 +9  1021.7  1.2  755  294  +8.5    0.8    влажная 
06 08.09.14 060 (СВ) 20000 м    ясно 
+12.9 +4.3 56 +13  1022.8  1.3  756  290  +8.5         
09 08.09.14 060 (СВ) 20000 м    5/4 1440 м верхняя 
[Cu hum|Ci fib]
+15.2 +3.4 45 +16  1023.4  0.7  757  288           
12 08.09.14 360 (С) 20000 м    5/3 1000 м верхняя 
[Cu hum|Ci fib]
+16 +2.4 40 +17  1022.9  -0.5  756  288           
15 08.09.14 060 (СВ) 10 км    6/4 1000 м верхняя 
[Cu hum|Ci fib]
+14 +2.7 46 +15  1023.1  0.1  757  290    +16.5       
18 08.09.14 090 (В) 10 км    ясно 
+11.3 +3.6 59 +12  1024.1  0.8  757  292           
21 08.09.14 тихо ()   10 км    ясно 
+9.4 +3.3 66 +9  1024.6  0.4  758  295           
00 09.09.14 тихо ()   10 км    ясно 
+6.5 +4.4 86 +7  1025.1  0.4  758  298           
03 09.09.14 тихо ()   20000 м    ясно 
+6.1 +4.3 88 +6  1025.7  0.6  758  298  +5.8        влажная 
06 09.09.14 270 (З) 20000 м    ясно 
+13.9 +4.8 54 +15  1025.9  0.5  759  290           
09 09.09.14 230 (ЮЗ) 20000 м    1/1 1000 м 
[Cu hum]
+16.2 +2.6 40 +18  1025.2  -0.6  758  288           
12 09.09.14 190 (Ю) 20000 м    ясно 
+17.1 +2.8 38 +19  1024.4  -0.7  758  287           
15 09.09.14 260 (З) 20000 м    ясно 
+15.2 +3.5 45 +17  1024.4  0.1  758  289    +17.3       
18 09.09.14 тихо ()   н/о    н/о 
+10.1 +6.2 77 +10  1025.1  0.4  758  294           
21 09.09.14 тихо ()   10 км    ясно 
+8.3 +6.2 87 +8  1026.1  0.8  759  296           
00 10.09.14 тихо ()   10 км    ясно 
+8.1 +6.7 91 +8  1026.5  0.4  759  296           
03 10.09.14 тихо ()   4000 м  дымка  ясно 
+8.8 +7 89 +9  1027.1  0.7  759  295  +7.5        влажная 
06 10.09.14 070 (В) 20000 м    ясно 
+16 +5.8 51 +17  1027.5  0.7  760  288           
09 10.09.14 140 (ЮВ) 20000 м    ясно 
+18.5 +5.6 43 +19  1027.4  0.1  760  286           
12 10.09.14 300 (СЗ) 20000 м    3/0 верхняя 
[Ci fib]
+19.7 +6.4 42 +21  1027  -0.4  760  285           
15 10.09.14 110 (В) 20000 м    3/0 верхняя 
[Ci fib]
+16.1 +7 55 +17  1027  -0.2  760  288    +20       
18 10.09.14 110 (В) 10 км    ясно 
+13 +7.7 70 +14  1027.7  0.6  760  291           
21 10.09.14 тихо ()   10 км    ясно 
+10.8 +7.5 80 +11  1028.3  0.4  760  293           
00 11.09.14 тихо ()   10 км    3/0 верхняя 
[Ci fib]
+9.2 +7 86 +9  1029.1  0.8  761  295           
03 11.09.14 140 (ЮВ) 10 км    9/0 верхняя 
[Ci fib]
+10.4 +8.8 90 +12  1029.3  0.2  761  294  +8.9        влажная 
06 11.09.14 250 (З) 20000 м    9/0 верхняя 
[Ci fib]
+16.5 +9.9 65 +19  1029.2  0.2  761  288           
09 11.09.14 290 (З) 20000 м    8/0 верхняя 
[Ci fib]
+19.4 +8.1 48 +20  1029.1  761  285           
12 11.09.14 240 (ЮЗ) 20000 м    10/0 средняя, верхняя 
[Ac lent|Ci fib]
+19.8 +7.3 44 +21  1028.4  -0.7  761  285           
15 11.09.14 180 (Ю) 20000 м    4/0 средняя 
[Ac lent]
+17.4 +10 62 +20  1027.9  -0.6  760  286    +20.6       
18 11.09.14 160 (Ю) 10 км    ясно 
+12.9 +9.6 80 +14  1028.5  -0.6  761  291           
21 11.09.14 тихо ()   10 км    ясно 
+11.2 +9.1 87 +11  1028.8  0.2  761  293           
00 12.09.14 тихо ()   10 км    ясно 
+9.7 +8.2 90 +10  1029.1  0.3  761  295           
03 12.09.14 тихо ()   20000 м    ясно 
+9.4 +8.2 92 +9  1029.5  0.3  761  295  +8.8        сухая 
06 12.09.14 270 (З) 4000 м  дымка  ясно 
+16.4 +10.6 69 +20  1029  -0.1  761  287           
09 12.09.14 270 (З) 20000 м    1/1 1000 м 
[Cu med, cong]
+20.3 +8.6 47 +20  1028.1  -0.6  761  284           
12 12.09.14 240 (ЮЗ) 20000 м    3/3 1000 м 
[Cu med, cong]
+21.9 +6.6 37 +22  1026.7  -1.3  760  282           
15 12.09.14 тихо ()   20000 м    ясно 
+17.6 +9.9 61 +18  1025.9  -1  759  286    +22       
21 12.09.14 тихо ()   10 км    ясно 
+11.4 +9.1 86 +11  1025.5  -0.7  758  292           
00 13.09.14 тихо ()   10 км    ясно 
+10.5 +8.9 90 +11  1025.1  -0.7  758  293           
03 13.09.14 тихо ()   20000 м    1/0 верхняя 
[Ci fib]
+9.9 +8.5 91 +10  1024.8  -0.4  758  293  +9.9        сухая 
06 13.09.14 230 (ЮЗ) 10 км    ясно 
+17 +9.5 61 +18  1023.7  -0.8  757  286           
09 13.09.14 260 (З) 20000 м    1/1 1000 м 
[Cu hum]
+20.4 +9.8 51 +21  1022.2  -1.3  756  282           
12 13.09.14 290 (З) 20000 м    8/1 1000 м верхняя 
[Cu hum|Ci fib]
+21.5 +8.7 44 +22  1020.8  -1.3  755  281           
15 13.09.14 250 (З) 20000 м    9/0 средняя, верхняя 
[Ac lent|Ci fib]
+19.6 +9.4 52 +21  1020  -0.8  755  282    +21.9       
18 13.09.14 270 (З) 10 км    10/0 средняя 
[Ac und]
+16.8 +11.6 71 +21  1019.7  -0.4  754  284           
21 13.09.14 тихо ()   4000 м  дымка  10/4 600 м средняя 
[Sc|As op]
+14.6 +11.8 83 +18  1019.6  -0.2  754  286           
00 14.09.14 290 (З) 10 км    10/4 600 м средняя 
[Sc|As op]
+14.8 +12.1 84 +20  1019.8  0.1  754  286           
03 14.09.14 360 (С) 10 км    10/0 средняя 
[Ac As]
+14.8 +11.4 80 +19  1019.6  0.1  754  286  +13.8        сухая 
06 14.09.14 100 (В) 20000 м    10/0 средняя, верхняя 
[Ac lent|Ci sp]
+17.8 +13.1 74 +24  1019.7  0.2  754  283           
09 14.09.14 100 (В) 10 км  слаб. ливневой дождь  10/10 630 м кучево-дожд. 
[Cb cap]
+17.5 +12.5 72 +23  1020  0.3  754  283           
12 14.09.14 050 (СВ) 10 км  слаб. ливневой дождь{гроза}  10/10 570 м кучево-дожд. 
[Cb calv]
+15.4 +14 91 +24  1020.8  0.7  755  285           
15 14.09.14 060 (СВ) 10 км  {ливн. осадки}  10/0 средняя 
[Ac lent]
+13.5 +10.8 84 +16  1021.3  0.4  755  288    +20.6     
18 14.09.14 070 (В) 10 км  {ливн. осадки}  10/0 средняя 
[Ac lent]
+11.2 +9.3 88 +11  1022.2  0.7  756  291           
21 14.09.14 090 (В) 10 км    10/0 средняя 
[Ac lent]
+10.6 +8.9 89 +11  1022.2  756  292           
00 15.09.14 090 (В) 10 км    10/0 средняя 
[Ac lent]
+9.8 +7.3 84 +10  1022  -0.2  756  293           
03 15.09.14 090 (В) 10 км    10/0 средняя 
[As op]
+9.6 +7.8 89 +10  1021.5  -0.5  755  293  +9.3        влажная 
06 15.09.14 тихо ()   10 км    10/10 300 м 
[St]
+11.8 +9.5 86 +12  1021  -0.4  755  290           
09 15.09.14 260 (З) 10 км    10/10 300 м 
[St]
+13 +10 82 +15  1020.5  -0.4  755  288           
12 15.09.14 290 (З) 10 км    10/10 800 м 
[Sc]
+14 +10.1 77 +16  1019  -1.5  754  287           
15 15.09.14 300 (СЗ) 10 км    8/8 1000 м 
[Sc]
+13.9 +9.2 73 +14  1017.8  -1.2  753  287    +14.2       
18 15.09.14 290 (З) 10 км    ясно 
+12 +8.3 78 +13  1017.4  -0.5  752  289           
21 15.09.14 320 (СЗ) 10 км    8/0 средняя 
[Ac lent]
+10.2 +5.3 72 +11  1016.8  -0.6  752  291           
00 16.09.14 310 (СЗ) 10 км    9/8 900 м верхняя 
[Sc diur, vesp|Ci fib]
+9.4 +6.3 81 +9  1016.1  -0.8  751  292           
03 16.09.14 300 (СЗ) 10 км    3/0 верхняя 
[Ci fib]
+6.7 +4.7 87 +8  1015.9  -0.3  751  295  +6.7        влажная 
06 16.09.14 280 (З) 10 км    8/0 средняя 
[Ac cast]
+10.1 +5.3 72 +9  1015.1  -0.6  751  291           
09 16.09.14 320 (СЗ) 3{10}  10 км    8/8 1000 м 
[Cu med, cong]
+11.7 +0.7 47 +11  1014.2  -0.8  750  290           
12 16.09.14 330 (СЗ) 3{11}  10 км  {ливн. осадки}  6/6 1000 м 
[Sc diur, vesp]
+11.2 -1.2 42 +11  1015.7  1.4  751  291           
15 16.09.14 350 (С) 2{10}  10 км  {ливн. осадки}  1/1 600 м 
[Cu med, cong]
+7.9 +1.6 64 +8  1018.3  2.4  753  295    +11.8       
18 16.09.14 350 (С) 10 км    ясно 
+5.5 +0.2 69 +6  1020.3  1.8  754  298           
21 16.09.14 340 (С) 10 км    ясно 
+4.3 -0.1 73 +4  1021.1  0.8  755  299           
00 17.09.14 310 (СЗ) 10 км    ясно 
+3.2 -0.2 78 +4  1021.6  0.4  755  301           
03 17.09.14 300 (СЗ) 20000 м    ясно 
+2.3 -0.6 81 +2  1022.5  0.8  756  302  +2.3        влажная 
06 17.09.14 340 (С) 10 км    9/9 900 м 
[Sc]
+6 +0.2 66 +7  1022.3  0.1  756  298  +2.3         
09 17.09.14 310 (СЗ) 10 км    10/1 600 м средняя 
[Cu hum|Ac und]
+7.3 -1.3 54 +6  1021.8  -0.5  755  297           
12 17.09.14 310 (СЗ) 10 км    10/10 900 м 
[Sc]
+7.3 -0.5 58 +7  1021.6  -0.2  755  296           
15 17.09.14 310 (СЗ) 2{10}  10 км    10/10 900 м 
[Sc]
+7.1 -0.4 59 +7  1022  0.4  755  297    +8       
18 17.09.14 310 (СЗ) 10 км    8/0 средняя 
[Ac lent]
+5.9 +1.2 72 +6  1022.8  0.7  756  298           
21 17.09.14 340 (С) н/о    н/о 
+5.3 +1.5 77 +5  1023.2  0.4  756  299           
00 18.09.14 320 (СЗ) 10 км    10/0 средняя 
[Ac lent]
+4.9 +1.1 76 +5  1023.8  0.6  757  299           
03 18.09.14 320 (СЗ) 10 км    10/0 средняя 
[Ac lent]
+3.1 +0 80 +4  1025.1  1.2  758  302  +3         
06 18.09.14 310 (СЗ) 10 км    10/0 средняя 
[Ac und]
+5.5 -1.7 60 +5  1026.3  1.3  759  300           
09 18.09.14 290 (З) 10 км    9/6 1000 м средняя 
[Cu med, cong|Ac As]
+7.8 -0.2 57 +7  1026.2  0.1  759  297           
12 18.09.14 300 (СЗ) 10 км    10/8 1000 м средняя 
[Sc|Ac und]
+8.5 +0.3 56 +9  1026.2  759  296           
15 18.09.14 300 (СЗ) 10 км    9/0 средняя, верхняя 
[Ac As|Ci fib]
+8 +0.5 59 +8  1026.7  0.5  759  297    +8.5       
18 18.09.14 230 (ЮЗ) 10 км    ясно 
+6 +1.6 73 +7  1027.5  0.7  760  299           
21 18.09.14 250 (З) 10 км    9/0 средняя 
[Ac lent]
+6 +2.6 79 +7  1028.1  0.6  760  299           
00 19.09.14 280 (З) 10 км    10/10 1200 м 
[Sc]
+7.2 +3.7 78 +7  1028.4  0.4  760  298           
03 19.09.14 240 (ЮЗ) 10 км    10/10 1300 м 
[Sc]
+7 +3.7 80 +7  1028.4  760  298  +5.2        влажная 
06 19.09.14 270 (З) 20000 м    10/0 средняя 
[Ac cast]
+9.5 +4 69 +10  1028.8  0.6  761  296           
09 19.09.14 270 (З) н/о    н/о 
+11.9 +3.8 58 +11  1028.8  0.1  761  293           
12 19.09.14 270 (З) 20000 м    4/0 верхняя 
[Ci fib]
+14.1 +3.8 50 +14  1027.6  -1.1  760  291           
15 19.09.14 260 (З) 10 км    4/0 верхняя 
[Ci fib]
+11.8 +4.3 60 +13  1027.2  -0.5  760  293    +14.1       
18 19.09.14 230 (ЮЗ) 10 км    ясно 
+10.1 +4.1 66 +10  1027.1  0.1  759  294           
21 19.09.14 240 (ЮЗ) 10 км    ясно 
+7.3 +3.5 77 +8  1026.5  -0.8  759  297           
00 20.09.14 тихо ()   10 км    ясно 
+5.3 +2.9 84 +5  1026.2  -0.5  758  299           
03 20.09.14 230 (ЮЗ) 10 км    3/0 верхняя 
[Ci fib]
+5.1 +2.7 84 +6  1026  -0.1  758  300  +4.6        влажная 
06 20.09.14 220 (ЮЗ) 10 км    9/0 средняя 
[Ac lent]
+10.2 +4.8 69 +11  1025.5  -0.3  758  294           
09 20.09.14 230 (ЮЗ) 20000 м    8/0 средняя, верхняя 
[Ac lent|Ci fib]
+15.4 +4.9 50 +16  1024  -1.2  757  288           
12 20.09.14 240 (ЮЗ) 10 км    10/0 средняя 
[Ac As]
+15.1 +6.3 56 +16  1023  -1  757  288           
15 20.09.14 250 (З) 10 км    10/0 средняя 
[Ac cast]
+14.3 +7 61 +16  1022.3  -0.7  756  288    +16.4       
18 20.09.14 240 (ЮЗ) 10 км    10/0 средняя 
[Ac und]
+13.2 +7.7 69 +14  1022.5  0.1  756  289           
21 20.09.14 240 (ЮЗ) 10 км    10/0 средняя 
[Ac As]
+12.4 +8 75 +14  1022.1  -0.4  756  290           
00 21.09.14 160 (Ю) н/о    н/о 
+10.9 +7.8 81 +12  1021.9  -0.3  756  291           
03 21.09.14 тихо ()   10 км    3/0 верхняя 
[Ci fib]
+8.3 +6.5 88 +8  1021.9  0.1  755  294  +8.3        сухая 
06 21.09.14 240 (ЮЗ) 10 км    ясно 
+14.1 +8.4 69 +15  1022.2  0.6  756  288  +8.2         
09 21.09.14 280 (З) 10 км    ясно 
+18.4 +7.8 50 +19  1021.6  -0.4  756  284           
12 21.09.14 290 (З) 10 км    1/1 1000 м 
[Cu hum]
+19.7 +5.3 39 +21  1020.4  -1.1  755  283           
15 21.09.14 тихо ()   10 км    ясно 
+14.3 +8.2 67 +14  1020.4  -0.3  755  288    +19.8       
18 21.09.14 тихо ()   10 км    ясно 
+10.5 +7.3 81 +11  1021  0.4  755  292           
21 21.09.14 тихо ()   н/о    н/о 
+8.6 +6.4 86 +9  1021.3  0.2  755  294           
00 22.09.14 тихо ()   10 км    ясно 
+7.6 +5.9 89 +8  1021.4  0.1  755  295           
03 22.09.14 тихо ()   10 км    ясно 
+7.1 +5.7 91 +7  1021.7  0.3  755  296  +6.9        сухая 
06 22.09.14 180 (Ю) 10 км    ясно 
+15.7 +8.8 63 +17  1021.4  0.2  755  286           
09 22.09.14 220 (ЮЗ) 10 км    3/3 1000 м 
[Cu med, cong]
+19.4 +7 44 +21  1020.7  -0.6  755  283           
12 22.09.14 180 (Ю) 20000 м    3/0 
[Cu hum]
+19.6 +5.4 39 +21  1019.7  -1  754  283           
15 22.09.14 110 (В) 10 км    ясно 
+14.6 +5.4 54 +16  1019.4  -0.6  754  287    +20       
18 22.09.14 090 (В) 10 км    ясно 
+12.8 +5.3 60 +14  1019.5  754  289           
21 22.09.14 080 (В) 10 км    ясно 
+11.6 +5.9 68 +13  1019.4  0.1  754  290           
00 23.09.14 тихо ()   10 км    ясно 
+8.7 +5 78 +9  1019.1  -0.5  753  293           
03 23.09.14 110 (В) 10 км    ясно 
+8.3 +5 80 +8  1018.7  -0.4  753  294  +8.2        сухая 
06 23.09.14 160 (Ю) 10 км    3/0 верхняя 
[Ci fib]
+14.1 +6.9 62 +15  1018.3  -0.1  753  287           
09 23.09.14 200 (Ю) 10 км    8/0 верхняя 
[Ci fib]
+18.9 +3.7 36 +20  1017.2  -0.8  752  283           
12 23.09.14 120 (ЮВ) 10 км    6/1 1000 м верхняя 
[Cu med, cong|Ci fib]
+19.2 +2.9 34 +21  1015.8  -1.3  751  282           
15 23.09.14 080 (В) 10 км    8/0 средняя, верхняя 
[Ac cast|Ci fib]
+15.7 +4.8 48 +17  1015.3  -0.7  751  285    +19.9       
18 23.09.14 100 (В) 4000 м  дымка  6/0 средняя 
[Ac cast]
+13.4 +5.3 58 +14  1014.6  -0.8  750  287           
21 23.09.14 100 (В) 10 км    ясно 
+11.1 +4.4 63 +11  1014.6  -0.2  750  290           
00 24.09.14 090 (В) 10 км    3/0 средняя 
[Ac lent]
+10 +3.3 63 +10  1013.6  -1  749  291           
03 24.09.14 080 (В) 10 км    3/0 средняя 
[Ac lent]
+10 +2.7 60 +10  1012.8  -0.8  749  291  +9.8        сухая 
06 24.09.14 100 (В) 20000 м    ясно 
+14.9 +3.8 47 +15  1011.7  -0.8  748  285           
09 24.09.14 100 (В) 20000 м    ясно 
+20 +2.2 31 +20  1010.4  -1  747  280           
12 24.09.14 110 (В) 20000 м    ясно 
+21.3 +2.2 28 +21  1009.9  -0.4  747  279           
15 24.09.14 090 (В) 10 км    1/0 верхняя 
[Ci fib]
+17.4 +4.4 42 +18  1010  0.1  747  282    +21.3       
18 24.09.14 100 (В) 10 км    ясно 
+14.5 +5.6 55 +14  1009.8  -0.4  747  285           
21 24.09.14 090 (В) 10 км    ясно 
+13.1 +4.2 55 +13  1010  0.1  747  286           
00 25.09.14 090 (В) 10 км    ясно 
+11.6 +3.7 58 +11  1010  0.1  747  288           
03 25.09.14 090 (В) 20000 м    3/0 верхняя 
[Ci fib]
+10.2 +3.4 63 +10  1010.2  0.2  747  290  +10.2        сухая 
06 25.09.14 100 (В) 10 км    ясно 
+13.8 +4.4 53 +14  1010.7  0.6  747  286           
09 25.09.14 100 (В) 10 км    ясно 
+19.6 +4.1 36 +20  1010  -0.4  747  280           
12 25.09.14 070 (В) 10 км    ясно 
+21 +3.6 32 +21  1010.2  0.2  747  279           
15 25.09.14 080 (В) 10 км    5/0 верхняя 
[Ci fib]
+17 +3.1 39 +18  1011.3  748  283    +21.5       
18 25.09.14 060 (СВ) 10 км    ясно 
+14.5 +4.2 50 +15  1011.8  0.4  748  286           
21 25.09.14 100 (В) н/о    н/о 
+11.4 +4.3 62 +11  1012.4  0.4  749  289           
00 26.09.14 100 (В) 10 км    ясно 
+9.1 +6.7 85 +9  1013.7  1.2  749  291           
03 26.09.14 100 (В) 10 км    10/0 верхняя 
[Cs]
+8.2 +7 92 +8  1014.8  750  292  +8.2        сухая 
06 26.09.14 110 (В) 2000 м  в посл. час туман  10/10 180 м 
[St]
+10.4 +9.8 96 +13  1016.1  1.5  751  290  +8.1         
09 26.09.14 140 (ЮВ) 10 км    6/6 1000 м 
[Cu med, cong]
+17 +9.5 61 +18  1016.4  0.6  752  283           
12 26.09.14 тихо ()   10 км    3/3 1000 м 
[Cu med, cong]
+18.4 +7.9 50 +18  1016.5  0.2  752  283           
15 26.09.14 140 (ЮВ) 10 км    ясно 
+13.9 +9.2 73 +15  1017.5  0.7  752  287    +18.7       
18 26.09.14 тихо ()   10 км    ясно 
+11.5 +8.5 82 +12  1018.1  0.5  753  290           
21 26.09.14 120 (ЮВ) 10 км    ясно 
+12 +8.5 79 +13  1017.5  -0.5  752  289           
00 27.09.14 тихо ()   10 км    ясно 
+8.9 +7.3 90 +9  1017.4  -0.3  752  292           
03 27.09.14 тихо ()   10 км    6/0 средняя, верхняя 
[Ac lent|Ci fib]
+7.8 +6.4 91 +8  1017.3  0.1  752  294  +7.8        сухая 
06 27.09.14 170 (Ю) 20000 м    10/0 верхняя 
[Cs]
+12.9 +9.5 80 +14  1016.6  -0.4  752  288  +7.8         
09 27.09.14 150 (ЮВ) 20000 м    10/0 верхняя 
[Cs]
+16.8 +9.4 62 +18  1015.6  -0.9  751  283           
12 27.09.14 160 (Ю) 20000 м    9/0 верхняя 
[Cs]
+18 +9 56 +19  1014.6  -0.9  750  282           
15 27.09.14 150 (ЮВ) 10 км    4/0 верхняя 
[Cs]
+14.8 +10.2 74 +17  1013.7  -1  750  285    +18.7       
18 27.09.14 130 (ЮВ) 10 км    5/0 верхняя 
[Cs]
+12.5 +9.5 82 +15  1013.5  -0.3  749  287           
21 27.09.14 140 (ЮВ) н/о    н/о 
+11.7 +8.1 79 +13  1013  -0.5  749  288           
00 28.09.14 140 (ЮВ) 10 км    5/0 средняя, верхняя 
[Ac As|Cc]
+10.7 +7.7 82 +12  1011.8  -1.2  748  289           
03 28.09.14 120 (ЮВ) 10 км    8/0 средняя 
[Ac As]
+9.5 +7.2 86 +11  1011.5  -0.4  748  290  +9.5        сухая 
06 28.09.14 140 (ЮВ) 10 км    10/0 средняя 
[Ac As]
+12.6 +8.5 76 +14  1011.3  -0.1  748  287           
09 28.09.14 250 (З) 10 км    8/3 1000 м средняя, верхняя 
[Sc|Ac lent|Ci fib]
+14.4 +7.7 64 +15  1011.3  0.2  748  285           
12 28.09.14 270 (З) 10 км    10/6 1200 м средняя, верхняя 
[Cu med, cong|Ac cuf|Cs]
+14.5 +6 57 +15  1011.4  748  285           
15 28.09.14 280 (З) 10 км    10/10 1020 м 
[Sc diur, vesp]
+12.1 +7.2 72 +12  1012.8  1.3  749  288    +15.2       
18 28.09.14 270 (З) 10 км    4/0 средняя 
[Ac lent]
+10.1 +6.8 80 +10  1013.9  750  290           
21 28.09.14 240 (ЮЗ) 10 км    ясно 
+8.9 +5.8 81 +9  1014.1  0.1  750  292           
00 29.09.14 240 (ЮЗ) 10 км    ясно 
+7.5 +5.2 85 +8  1014  -0.2  750  293           
03 29.09.14 240 (ЮЗ) 10 км    4/0 средняя 
[Ac lent]
+6.7 +4.5 86 +8  1013.9  0.1  750  294  +6.7        сухая 
06 29.09.14 210 (ЮЗ) 10 км    10/10 1080 м 
[Sc]
+8.2 +5.6 84 +9  1014.3  0.5  750  292  +6.6         
09 29.09.14 230 (ЮЗ) 10 км    9/9 1000 м 
[Sc]
+11.8 +5.6 66 +12  1013.6  -0.5  749  289           
12 29.09.14 240 (ЮЗ) 10 км    10/10 900 м 
[Sc]
+12 +6.8 70 +12  1013.3  -0.3  749  288           
15 29.09.14 260 (З) 10 км  {ливн. осадки}  1/0 средняя 
[Ac lent]
+10.3 +7 80 +11  1013.6  0.2  749  290    +13.2       
18 29.09.14 200 (Ю) 10 км    ясно 
+8 +6.3 89 +9  1013.4  -0.3  749  292           
21 29.09.14 160 (Ю) н/о    н/о 
+8.3 +7.1 92 +9  1011.9  -1.5  748  291           
00 30.09.14 250 (З) н/о    н/о 
+9.6 +8.1 90 +10  1010.5  -1.3  747  289           
03 30.09.14 150 (ЮВ) 10 км    10/10 330 м 
[Frnb]
+9.6 +8 90 +11  1008.9  -1.5  746  289  +7.3        сухая 
06 30.09.14 240 (ЮЗ) 10 км    9/0 средняя, верхняя 
[Ac As|Ci fib]
+12 +8 77 +12  1007.5  -1.3  745  286           
09 30.09.14 250 (З) 10 км    10/5 1000 м средняя 
[Cu med, cong|Ac lent]
+13.4 +6.7 64 +13  1005.4  -2  743  284           
12 30.09.14 220 (ЮЗ) 1{11}  10 км  в посл. час ливневой дождь  10/0 средняя 
[As op]
+12.6 +6.8 68 +14  1002.7  -2.7  741  284           
15 30.09.14 190 (Ю) 4000 м  дождь  10/10 180 м 
[Frnb|Ns]
+10.3 +8.8 90 +10  999.3  -3.4  739  285    +13.5     
18 30.09.14 270 (З) 5{12}  10 км  {дождь}  10/10 900 м 
[Sc]
+8.6 +5.1 79 +7  998.5  -0.9  738  287           
21 30.09.14 250 (З) 4{12}  10 км    10/10 1000 м 
[Sc]
+7.9 +4 76 +7  997.5  -1  737  288           
00 01.10.14 280 (З) 6-14{14}  10 км  слаб. дождь  10/10 630 м 
[Frnb|Ns]
+6.4 +3.8 83 +4  996.8  -0.8  737  289           
03 01.10.14 280 (З) 6-11{15}  10 км  слаб. дождь  10/10 420 м 
[Frnb|Ns]
+6.6 +4 83 +4  996.9  0.1  737  289  +6.2      влажная 
Время (UTC), дата Ветер
(°,м/с) 
Видим.   Явления Облачность Т
(°С)
Тd
(°С)
f(%) Тe
(°С)
Pmin
(гПа)
dP
(гПа)
Po
(мм)
O2
(г/м3)
Тmin Tmax R s Состояние
почвы